Location: Unspecified
(52.1384°N, 8.6525°W)
Time: 11:19:18
(UTC+00:00)

XW-2F - Pass Details

Date: 18 January 2021
Orbit: 500 x 519 km, 97.5° (Epoch: 24 February)

Event Time Altitude Azimuth Distance (km) Brightness Sun altitude
Rises 17:54:40 0° 173° (S) 2,599 ? -8.6°
Reaches altitude 10° 17:56:45 10° 177° (S) 1,722 ? -8.9°
Maximum altitude 18:00:26 62° 259° (WSW) 583 ? -9.4°
Drops below altitude 10° 18:04:10 10° 340° (NNW) 1,750 ? -9.9°
Sets 18:06:18 0° 344° (NNW) 2,645 ? -10.2°
